San Juan, PR

6:19 PM AST on August 20, 2017 (GMT -0400)
Luis Munoz Marin International

Weather History for TJSJ - November, 2013

Change the Weather History Date:

Saturday, November 2, 2013

  Actual Average Record
Temperature  
Mean Temperature 80 °F 82 °F  
Max Temperature 86 °F 87 °F 93 °F (1915)
Min Temperature 73 °F 76 °F 70 °F (1961)
Degree Days  
Heating Degree Days 0 0  
Month to date heating degree days 0 0  
Since 1 July heating degree days 0 0  
Cooling Degree Days 15 17  
Month to date cooling degree days 30 34  
Year to date cooling degree days 5124 4993  
Growing Degree Days 30 (Base 50)    
Moisture  
Dew Point 73 °F    
Average Humidity 80    
Maximum Humidity 94    
Minimum Humidity 65    
Precipitation  
Precipitation 0.01 in 0.23 in 1.74 in (1932)
Month to date precipitation 0.24 0.45  
Year to date precipitation 68.72 45.43  
Sea Level Pressure  
Sea Level Pressure 29.90 in    
Wind  
Wind Speed 4 mph (SE)    
Max Wind Speed 16 mph    
Max Gust Speed 23 mph    
Visibility 10 miles    
Events Rain    
T = Trace of Precipitation, MM = Missing Value Source: NWS Daily Summary

Daily Weather History Graph

Daily Weather History Graph

Search for Another Location

Airport or City:

Trip Planner

Search our weather history database for the weather conditions in past years. The results will help you decide how hot, cold, wet, or windy it might be!

Date:

Astronomy

Nov. 02, 2013 Rise Set
Actual Time 6:24 AM AST 5:50 PM AST
Civil Twilight 6:01 AM AST 6:13 PM AST
Nautical Twilight 5:35 AM AST 6:39 PM AST
Astronomical Twilight 5:09 AM AST 7:04 PM AST
Moon 5:23 AM AST (11/2) 5:16 PM AST (11/2)
Length of Visible Light 12h 11m
Length of Day
11h 26m
Waning Crescent, 1% of the Moon is Illuminated
Nov 2
Waning Crescent
Nov 3
New
Nov 10
First Quarter
Nov 17
Full
Nov 25
Last Quarter

Hourly Weather History & Observations

Time (AST) Temp. Heat Index Dew Point Humidity Pressure Visibility Wind Dir Wind Speed Gust Speed Precip Events Conditions
12:56 AM 75.0 °F - 72.0 °F 90% 29.92 in 10.0 mi Calm Calm - N/A   Scattered Clouds
1:56 AM 73.9 °F - 72.0 °F 93% 29.89 in 10.0 mi Calm Calm - N/A   Partly Cloudy
2:56 AM 73.9 °F - 71.1 °F 91% 29.88 in 10.0 mi Calm Calm - N/A   Partly Cloudy
3:56 AM 73.9 °F - 71.1 °F 91% 29.87 in 10.0 mi Calm Calm - N/A   Partly Cloudy
4:56 AM 73.9 °F - 71.1 °F 91% 29.88 in 10.0 mi Calm Calm - N/A   Partly Cloudy
5:56 AM 73.9 °F - 71.1 °F 91% 29.88 in 10.0 mi Calm Calm - N/A   Scattered Clouds
6:56 AM 73.0 °F - 71.1 °F 93% 29.91 in 10.0 mi SSE 3.5 mph - N/A   Scattered Clouds
7:56 AM 75.9 °F - 73.0 °F 91% 29.92 in 10.0 mi Calm Calm - N/A   Scattered Clouds
8:56 AM 79.0 °F - 73.9 °F 84% 29.94 in 10.0 mi SE 3.5 mph - N/A   Scattered Clouds
9:56 AM 82.9 °F 88.0 °F 72.0 °F 69% 29.94 in 10.0 mi SE 4.6 mph - N/A   Scattered Clouds
10:56 AM 84.9 °F 90.7 °F 72.0 °F 65% 29.94 in 10.0 mi Variable 4.6 mph - N/A   Scattered Clouds
11:56 AM 84.0 °F 91.9 °F 75.0 °F 74% 29.92 in 10.0 mi South 8.1 mph - N/A   Mostly Cloudy
12:56 PM 80.1 °F 85.1 °F 75.0 °F 85% 29.89 in 10.0 mi Variable 4.6 mph - 0.01 in Rain Light Rain
1:56 PM 82.9 °F 88.8 °F 73.0 °F 72% 29.87 in 10.0 mi SSE 6.9 mph - N/A   Mostly Cloudy
2:56 PM 82.0 °F 87.9 °F 73.9 °F 76% 29.86 in 10.0 mi SSE 8.1 mph - N/A   Mostly Cloudy
3:56 PM 82.9 °F 89.4 °F 73.9 °F 74% 29.85 in 10.0 mi SE 5.8 mph - N/A   Mostly Cloudy
4:56 PM 82.0 °F 87.4 °F 73.0 °F 74% 29.86 in 10.0 mi ENE 8.1 mph - N/A   Mostly Cloudy
5:56 PM 82.9 °F 88.0 °F 72.0 °F 69% 29.86 in 10.0 mi SSE 4.6 mph - N/A   Mostly Cloudy
6:56 PM 81.0 °F 86.2 °F 73.9 °F 79% 29.87 in 10.0 mi SSE 4.6 mph - N/A   Partly Cloudy
7:56 PM 80.1 °F 83.8 °F 72.0 °F 76% 29.90 in 10.0 mi SSE 3.5 mph - N/A   Partly Cloudy
8:56 PM 80.1 °F 83.8 °F 72.0 °F 76% 29.92 in 10.0 mi Calm Calm - N/A   Partly Cloudy
9:56 PM 79.0 °F - 73.0 °F 82% 29.94 in 10.0 mi ESE 5.8 mph - N/A   Scattered Clouds
10:56 PM 79.0 °F - 73.0 °F 82% 29.93 in 10.0 mi SE 3.5 mph - N/A   Scattered Clouds
11:56 PM 80.1 °F 84.2 °F 73.0 °F 79% 29.92 in 10.0 mi SSE 3.5 mph - N/A   Scattered Clouds